When you browse on this site, cookies collect data to enhance your experience and personalize the content and advertising you see.
Visit our Privacy Policy to learn more. By continuing to use the site, you agree to this use of cookies and data.
  • In Slovakia
  • List of Countries
  • For 7 days
  • Water Temperature
  • Satellite Maps
  • Weather Map
  • Weather Widgets
  • user-avatar
    Login

    Hourly Weather Gozdowo

    Today, 21 April, Sunday

    Time Temperature Precipitation Wind Pressure Humidity
    00:00 +5°C° 0 mm 3 mps 757 mmHg 72%
    01:00 +4°C° 0 mm 3 mps 757 mmHg 74%
    02:00 +4°C° 0 mm 3 mps 757 mmHg 75%
    03:00 +4°C° 0 mm 3 mps 756 mmHg 76%
    04:00 +3°C° 0 mm 3 mps 756 mmHg 77%
    05:00 +4°C° 0 mm 3 mps 756 mmHg 72%
    06:00 +7°C° 0 mm 3 mps 756 mmHg 68%
    07:00 +8°C° 0 mm 2 mps 756 mmHg 64%
    08:00 +10°C° 0 mm 2 mps 755 mmHg 58%
    09:00 +13°C° 0 mm 2 mps 755 mmHg 52%
    10:00 +14°C° 0 mm 2 mps 755 mmHg 46%
    11:00 +16°C° 0 mm 3 mps 754 mmHg 43%
    12:00 +17°C° 0 mm 4 mps 754 mmHg 40%
    13:00 +17°C° 0 mm 5 mps 753 mmHg 37%
    14:00 +17°C° 0 mm 5 mps 753 mmHg 40%
    15:00 +16°C° 0 mm 5 mps 752 mmHg 43%
    16:00 +16°C° 0 mm 5 mps 752 mmHg 46%
    17:00 +14°C° 0 mm 4 mps 752 mmHg 54%
    18:00 +12°C° 0 mm 4 mps 751 mmHg 61%
    19:00 +9°C° 0 mm 3 mps 751 mmHg 68%
    20:00 +8°C° 0 mm 3 mps 751 mmHg 74%
    21:00 +7°C° 0 mm 2 mps 752 mmHg 81%
    22:00 +6°C° 0 mm 2 mps 752 mmHg 87%
    23:00 +6°C° 0 mm 2 mps 752 mmHg 85%

    Tomorrow, 22 April, Monday

    Time Temperature Precipitation Wind Pressure Humidity
    00:00 +4°C° 0 mm 3 mps 752 mmHg 83%
    01:00 +4°C° 0 mm 3 mps 752 mmHg 82%
    02:00 +4°C° 0 mm 3 mps 752 mmHg 86%
    03:00 +4°C° 0 mm 3 mps 752 mmHg 90%
    04:00 +3°C° 0 mm 4 mps 752 mmHg 94%
    05:00 +5°C° 0 mm 4 mps 752 mmHg 89%
    06:00 +6°C° 0 mm 4 mps 753 mmHg 84%
    07:00 +7°C° 0 mm 5 mps 753 mmHg 79%
    08:00 +9°C° 0 mm 5 mps 753 mmHg 74%
    09:00 +11°C° 0 mm 6 mps 753 mmHg 68%
    10:00 +13°C° 0 mm 6 mps 753 mmHg 63%
    11:00 +14°C° 0 mm 6 mps 753 mmHg 60%
    12:00 +15°C° 0 mm 6 mps 753 mmHg 56%
    13:00 +16°C° 0 mm 6 mps 753 mmHg 53%
    14:00 +16°C° 0 mm 7 mps 753 mmHg 53%
    15:00 +16°C° 0 mm 7 mps 753 mmHg 54%
    16:00 +16°C° 0 mm 8 mps 753 mmHg 54%
    17:00 +14°C° 0 mm 7 mps 753 mmHg 56%
    18:00 +13°C° 0 mm 6 mps 753 mmHg 59%
    19:00 +10°C° 0 mm 5 mps 753 mmHg 61%
    20:00 +10°C° 0 mm 5 mps 754 mmHg 60%
    21:00 +9°C° 0 mm 5 mps 754 mmHg 59%
    22:00 +9°C° 0 mm 6 mps 754 mmHg 58%
    23:00 +8°C° 0 mm 6 mps 754 mmHg 57%

    Day after tomorrow, 23 April, Tuesday

    Time Temperature Precipitation Wind Pressure Humidity
    00:00 +8°C° 0 mm 6 mps 754 mmHg 57%
    01:00 +7°C° 0 mm 6 mps 754 mmHg 56%
    02:00 +7°C° 0 mm 6 mps 754 mmHg 56%
    03:00 +6°C° 0 mm 7 mps 754 mmHg 56%
    04:00 +6°C° 0 mm 7 mps 754 mmHg 56%
    05:00 +6°C° 0 mm 8 mps 754 mmHg 55%
    06:00 +7°C° 0 mm 9 mps 754 mmHg 54%
    07:00 +8°C° 0 mm 9 mps 754 mmHg 53%
    08:00 +9°C° 0 mm 10 mps 753 mmHg 50%
    09:00 +12°C° 0 mm 10 mps 753 mmHg 47%
    10:00 +13°C° 0 mm 11 mps 753 mmHg 44%
    11:00 +14°C° 0 mm 11 mps 753 mmHg 43%
    12:00 +14°C° 0 mm 11 mps 752 mmHg 43%
    13:00 +16°C° 0 mm 11 mps 752 mmHg 42%
    14:00 +16°C° 0 mm 11 mps 751 mmHg 43%
    15:00 +16°C° 0 mm 10 mps 751 mmHg 44%
    16:00 +16°C° 0 mm 10 mps 751 mmHg 45%
    17:00 +15°C° 0 mm 9 mps 751 mmHg 48%
    18:00 +12°C° 0 mm 8 mps 750 mmHg 51%
    19:00 +11°C° 0 mm 7 mps 750 mmHg 53%
    20:00 +11°C° 0 mm 7 mps 750 mmHg 53%
    21:00 +11°C° 0 mm 8 mps 750 mmHg 53%
    22:00 +11°C° 0 mm 8 mps 750 mmHg 54%
    23:00 +10°C° 0 mm 8 mps 750 mmHg 56%

    24 April, Wednesday

    Time Temperature Precipitation Wind Pressure Humidity
    00:00 +10°C° 0 mm 8 mps 750 mmHg 59%
    01:00 +10°C° 0 mm 8 mps 750 mmHg 62%
    02:00 +9°C° 0.1 mm 8 mps 749 mmHg 65%
    03:00 +8°C° 0.1 mm 9 mps 749 mmHg 69%
    04:00 +8°C° 0.1 mm 9 mps 749 mmHg 73%
    05:00 +8°C° 0 mm 9 mps 749 mmHg 73%
    06:00 +8°C° 0 mm 9 mps 749 mmHg 74%
    07:00 +8°C° 0 mm 9 mps 749 mmHg 75%
    08:00 +10°C° 0 mm 9 mps 749 mmHg 75%
    09:00 +10°C° 0 mm 8 mps 749 mmHg 76%
    10:00 +10°C° 0 mm 8 mps 749 mmHg 77%
    11:00 +13°C° 0 mm 8 mps 749 mmHg 71%
    12:00 +16°C° 0 mm 8 mps 749 mmHg 64%
    13:00 +20°C° 0 mm 8 mps 749 mmHg 58%
    14:00 +20°C° 0 mm 8 mps 749 mmHg 58%
    15:00 +20°C° 0 mm 7 mps 748 mmHg 58%
    16:00 +21°C° 0 mm 7 mps 748 mmHg 58%
    17:00 +19°C° 0 mm 6 mps 748 mmHg 62%
    18:00 +17°C° 0 mm 6 mps 748 mmHg 66%
    19:00 +16°C° 0 mm 5 mps 749 mmHg 69%
    20:00 +15°C° 0 mm 5 mps 749 mmHg 72%
    21:00 +14°C° 0 mm 5 mps 749 mmHg 75%
    22:00 +14°C° 0 mm 5 mps 749 mmHg 78%
    23:00 +13°C° 0 mm 4 mps 749 mmHg 80%

    25 April, Thursday

    Time Temperature Precipitation Wind Pressure Humidity
    00:00 +13°C° 0 mm 4 mps 749 mmHg 83%
    01:00 +12°C° 0 mm 4 mps 749 mmHg 86%
    02:00 +12°C° 0 mm 4 mps 749 mmHg 88%
    03:00 +11°C° 0 mm 4 mps 749 mmHg 91%
    04:00 +11°C° 0 mm 4 mps 749 mmHg 93%
    05:00 +12°C° 0 mm 5 mps 749 mmHg 89%
    06:00 +13°C° 0 mm 5 mps 749 mmHg 85%
    07:00 +14°C° 0 mm 5 mps 749 mmHg 81%
    08:00 +16°C° 0 mm 5 mps 749 mmHg 75%
    09:00 +19°C° 0 mm 5 mps 749 mmHg 69%
    10:00 +21°C° 0 mm 6 mps 749 mmHg 63%
    11:00 +22°C° 0 mm 6 mps 748 mmHg 58%
    12:00 +23°C° 0 mm 6 mps 748 mmHg 54%
    13:00 +24°C° 0 mm 6 mps 748 mmHg 49%
    14:00 +24°C° 0 mm 6 mps 747 mmHg 51%
    15:00 +25°C° 0 mm 5 mps 747 mmHg 52%
    16:00 +25°C° 0 mm 5 mps 747 mmHg 53%
    17:00 +22°C° 0.4 mm 4 mps 747 mmHg 59%
    18:00 +21°C° 0.4 mm 4 mps 747 mmHg 65%
    19:00 +19°C° 0.4 mm 3 mps 747 mmHg 71%
    20:00 +19°C° 0 mm 3 mps 746 mmHg 74%
    21:00 +18°C° 0 mm 3 mps 746 mmHg 76%
    22:00 +17°C° 0 mm 3 mps 746 mmHg 79%
    23:00 +17°C° 0 mm 3 mps 746 mmHg 77%

    26 April, Friday

    Time Temperature Precipitation Wind Pressure Humidity
    00:00 +18°C° 0 mm 4 mps 745 mmHg 76%
    01:00 +18°C° 0 mm 4 mps 745 mmHg 74%
    02:00 +17°C° 0 mm 4 mps 745 mmHg 76%
    03:00 +17°C° 0 mm 4 mps 745 mmHg 78%
    04:00 +15°C° 0 mm 4 mps 744 mmHg 79%
    05:00 +17°C° 0 mm 4 mps 744 mmHg 77%
    06:00 +17°C° 0 mm 5 mps 744 mmHg 74%
    07:00 +19°C° 0 mm 5 mps 744 mmHg 71%
    08:00 +21°C° 0 mm 5 mps 744 mmHg 66%
    09:00 +22°C° 0 mm 6 mps 744 mmHg 60%
    10:00 +24°C° 0 mm 6 mps 744 mmHg 54%
    11:00 +26°C° 0 mm 6 mps 743 mmHg 51%
    12:00 +27°C° 0 mm 6 mps 743 mmHg 48%
    13:00 +28°C° 0 mm 6 mps 743 mmHg 44%
    14:00 +27°C° 0 mm 6 mps 743 mmHg 46%
    15:00 +27°C° 0 mm 6 mps 743 mmHg 49%
    16:00 +26°C° 0 mm 6 mps 743 mmHg 51%
    17:00 +23°C° 0 mm 5 mps 743 mmHg 59%
    18:00 +21°C° 0 mm 5 mps 743 mmHg 68%
    19:00 +19°C° 0 mm 5 mps 743 mmHg 76%
    20:00 +17°C° 0.1 mm 4 mps 744 mmHg 82%
    21:00 +15°C° 0.1 mm 4 mps 744 mmHg 87%
    22:00 +13°C° 0.1 mm 3 mps 744 mmHg 93%
    23:00 +13°C° 0 mm 3 mps 745 mmHg 91%
    Show more